{"data":{"norad_id":64361,"epoch":"2026-05-25T03:31:35.565024Z","epoch_age_seconds":62266,"freshness":"FRESH","line1":"1 64361U 25126T   26145.14693941  .00002425  00000+0  21090-3 0  9998","line2":"2 64361  70.0008 201.7101 0003881 267.2535  92.8179 14.98334774 52136","mean_motion":14.98334774,"eccentricity":0.0003881,"inclination_deg":70.0008,"raan_deg":201.7101,"arg_perigee_deg":267.2535,"mean_anomaly_deg":92.8179,"bstar":0.0002109,"rev_number":5213,"period_min":96.106692909204,"perigee_km":569.34376365103,"apogee_km":574.73849191382,"semimajor_km":6950.1781277824,"source":"CELESTRAK","updated_at":"2026-05-25T13:38:20.405183Z"}}